Weather History for Boulder City, NV

Change the Weather History Date:

Wednesday, March 20, 2013

  Actual Average (KLAS) Record (KLAS)
Temperature  
Mean Temperature 66 °F 61 °F  
Max Temperature 75 °F 71 °F 90 °F (2004)
Min Temperature 57 °F 50 °F 34 °F (1964)
Degree Days  
Heating Degree Days 0 5  
Month to date heating degree days 139  
Since 1 July heating degree days 1830  
Cooling Degree Days 1 1  
Month to date cooling degree days 12  
Year to date cooling degree days 13  
Growing Degree Days 16 (Base 50)    
Moisture  
Dew Point 27 °F    
Average Humidity 23    
Maximum Humidity 34    
Minimum Humidity 16    
Precipitation  
Precipitation 0.00 in 0.02 in 0.11 in (1991)
Month to date precipitation 0.34  
Year to date precipitation 1.64  
Snow  
Snow 0.00 in 0.00 in T in (1952)
Month to date snowfall 0.0  
Since 1 July snowfall 0.3  
Snow Depth -    
Sea Level Pressure  
Sea Level Pressure 29.91 in    
Wind  
Wind Speed 5 mph (SW)    
Max Wind Speed 22 mph    
Max Gust Speed 26 mph    
Visibility 10 miles    
Events Thunderstorm    
T = Trace of Precipitation, MM = Missing Value Source: NWS Daily Summary

Daily Weather History Graph

Daily Weather History Graph

Search for Another Location

Airport:

Trip Planner

Search our weather history database for the weather conditions in past years. The results will help you decide how hot, cold, wet, or windy it might be!

Date:

Astronomy

Mar. 20, 2013 Rise Set
Actual Time 6:42 AM PDT 6:51 PM PDT
Civil Twilight 6:17 AM PDT 7:17 PM PDT
Nautical Twilight 5:47 AM PDT 7:46 PM PDT
Astronomical Twilight 5:17 AM PDT 8:17 PM PDT
Moon 12:40 PM PDT (3/20) 2:15 AM PDT (3/20)
Length of Visible Light 13h 00m
Length of Day
12h 08m
First Quarter, 60% of the Moon is Illuminated
Mar 20
First Quarter
Mar 27
Full
Apr 2
Last Quarter
Apr 10
New
Apr 18
First Quarter

Hourly Weather History & Observations

Time (PDT) Temp. Dew Point Humidity Pressure Visibility Wind Dir Wind Speed Gust Speed Precip Events Conditions
12:15 AM 59.0 °F 28.4 °F 31% 30.03 in 10.0 mi Calm Calm - N/A   Clear
12:35 AM 57.2 °F 23.0 °F 27% 30.02 in 10.0 mi Calm Calm - N/A   Clear
12:55 AM 57.2 °F 23.0 °F 27% 30.02 in 10.0 mi Calm Calm - N/A   Clear
1:15 AM 59.0 °F 19.4 °F 22% 30.02 in 10.0 mi Calm Calm - N/A   Clear
1:35 AM 59.0 °F 19.4 °F 22% 30.02 in 10.0 mi Calm Calm - N/A   Clear
1:55 AM 59.0 °F 21.2 °F 23% 30.01 in 10.0 mi Calm Calm - N/A   Clear
2:15 AM 57.2 °F 26.6 °F 31% 30.01 in 10.0 mi Calm Calm - N/A   Clear
2:35 AM 57.2 °F 23.0 °F 27% 30.00 in 10.0 mi Calm Calm - N/A   Clear
2:55 AM 59.0 °F 30.2 °F 34% 29.98 in 10.0 mi Calm Calm - N/A   Clear
3:15 AM 57.2 °F 28.4 °F 33% 29.97 in 10.0 mi Calm Calm - N/A   Clear
3:35 AM 59.0 °F 30.2 °F 34% 29.96 in 10.0 mi Calm Calm - N/A   Clear
3:55 AM 62.6 °F 24.8 °F 24% 29.94 in 10.0 mi Calm Calm - N/A   Clear
4:15 AM 62.6 °F 23.0 °F 22% 29.94 in 10.0 mi Calm Calm - N/A   Clear
4:35 AM 64.4 °F 21.2 °F 19% 29.95 in 10.0 mi Calm Calm - N/A   Clear
4:55 AM 62.6 °F 21.2 °F 20% 29.94 in 10.0 mi Calm Calm - N/A   Clear
5:15 AM 62.6 °F 21.2 °F 20% 29.93 in 5.0 mi Calm Calm - N/A   Haze
5:35 AM 57.2 °F 23.0 °F 27% 29.92 in 9.0 mi Calm Calm - N/A   Clear
5:55 AM 59.0 °F 26.6 °F 29% 29.93 in 10.0 mi Calm Calm - N/A Thunderstorm Clear
6:15 AM 62.6 °F 24.8 °F 24% 29.93 in 10.0 mi Calm Calm - N/A Thunderstorm Clear
6:35 AM 66.2 °F 28.4 °F 24% 29.92 in 10.0 mi SW 10.4 mph - N/A   Clear
6:55 AM 66.2 °F 30.2 °F 26% 29.92 in 10.0 mi SW 12.7 mph - N/A   Clear
7:15 AM 66.2 °F 32.0 °F 28% 29.93 in 10.0 mi SW 11.5 mph - N/A   Clear
7:35 AM 66.2 °F 32.0 °F 28% 29.93 in 10.0 mi SSW 10.4 mph - N/A Thunderstorm Clear
7:55 AM 66.2 °F 32.0 °F 28% 29.94 in 10.0 mi SW 9.2 mph - N/A   Clear
8:15 AM 68.0 °F 32.0 °F 26% 29.94 in 10.0 mi SSW 9.2 mph - N/A   Clear
8:55 AM 68.0 °F 30.2 °F 24% 29.95 in 10.0 mi ENE 5.8 mph - N/A   Clear
9:15 AM 68.0 °F 28.4 °F 23% 29.95 in 10.0 mi ENE 4.6 mph - N/A   Clear
9:35 AM 68.0 °F 28.4 °F 23% 29.96 in 10.0 mi Calm Calm - N/A Thunderstorm Clear
9:55 AM 71.6 °F 32.0 °F 23% 29.95 in 10.0 mi WSW 15.0 mph - N/A   Clear
10:15 AM 71.6 °F 32.0 °F 23% 29.95 in 10.0 mi SW 15.0 mph - N/A   Clear
10:35 AM 73.4 °F 32.0 °F 22% 29.95 in 10.0 mi SSW 5.8 mph - N/A   Clear
10:55 AM 73.4 °F 32.0 °F 22% 29.95 in 10.0 mi SW 13.8 mph - N/A   Clear
11:15 AM 75.2 °F 32.0 °F 21% 29.95 in 10.0 mi SW 20.7 mph 24.2 mph N/A   Clear
11:35 AM 73.4 °F 30.2 °F 20% 29.95 in 10.0 mi SW 19.6 mph 26.5 mph N/A   Clear
11:55 AM 73.4 °F 28.4 °F 19% 29.95 in 10.0 mi WSW 17.3 mph 24.2 mph N/A   Clear
12:15 PM 73.4 °F 26.6 °F 18% 29.94 in 10.0 mi WSW 18.4 mph - N/A   Clear
12:35 PM 73.4 °F 24.8 °F 16% 29.94 in 10.0 mi SW 19.6 mph - N/A   Clear
12:55 PM 73.4 °F 24.8 °F 16% 29.93 in 10.0 mi SW 21.9 mph 26.5 mph N/A   Clear
1:15 PM 73.4 °F 26.6 °F 18% 29.93 in 10.0 mi SW 17.3 mph - N/A   Clear
1:35 PM 73.4 °F 26.6 °F 18% 29.92 in 10.0 mi SW 13.8 mph - N/A   Partly Cloudy
1:55 PM 73.4 °F 28.4 °F 19% 29.92 in 10.0 mi SW 16.1 mph 21.9 mph N/A   Clear
2:15 PM 73.4 °F 28.4 °F 19% 29.90 in 10.0 mi SSW 15.0 mph 18.4 mph N/A   Clear
2:35 PM 75.2 °F 26.6 °F 17% 29.90 in 10.0 mi SSW 17.3 mph - N/A   Clear
2:55 PM 75.2 °F 26.6 °F 17% 29.90 in 10.0 mi SW 16.1 mph 23.0 mph N/A Thunderstorm Clear
3:15 PM 75.2 °F 26.6 °F 17% 29.89 in 10.0 mi SW 16.1 mph - N/A   Clear
3:35 PM 75.2 °F 26.6 °F 17% 29.89 in 10.0 mi SW 16.1 mph - N/A   Clear
3:55 PM 75.2 °F 26.6 °F 17% 29.88 in 10.0 mi SW 13.8 mph 20.7 mph N/A   Clear
4:15 PM 75.2 °F 26.6 °F 17% 29.87 in 10.0 mi SW 13.8 mph - N/A   Clear
4:35 PM 75.2 °F 26.6 °F 17% 29.87 in 10.0 mi WSW 12.7 mph - N/A   Clear
4:55 PM 73.4 °F 26.6 °F 18% 29.86 in 10.0 mi SW 10.4 mph 16.1 mph N/A   Clear
5:15 PM 73.4 °F 26.6 °F 18% 29.86 in 10.0 mi SW 6.9 mph - N/A Thunderstorm Clear
5:35 PM 73.4 °F 26.6 °F 18% 29.86 in 10.0 mi SW 5.8 mph - N/A   Clear
5:55 PM 73.4 °F 28.4 °F 19% 29.85 in 10.0 mi Calm Calm - N/A   Clear
6:15 PM 73.4 °F 28.4 °F 19% 29.85 in 10.0 mi Calm Calm - N/A   Clear
6:35 PM 71.6 °F 30.2 °F 22% 29.84 in 10.0 mi ESE 5.8 mph - N/A   Clear
6:55 PM 71.6 °F 28.4 °F 20% 29.84 in 10.0 mi Calm Calm - N/A   Clear
7:15 PM 71.6 °F 30.2 °F 22% 29.83 in 10.0 mi Calm Calm - N/A   Clear
7:35 PM 71.6 °F 28.4 °F 20% 29.83 in 10.0 mi ESE 4.6 mph - N/A   Clear
7:55 PM 71.6 °F 28.4 °F 20% 29.82 in 10.0 mi SSE 3.5 mph - N/A   Clear
8:15 PM 69.8 °F 28.4 °F 21% 29.82 in 10.0 mi Calm Calm - N/A   Clear
8:35 PM 68.0 °F 28.4 °F 23% 29.82 in 10.0 mi SW 5.8 mph - N/A   Clear
8:55 PM 68.0 °F 26.6 °F 21% 29.82 in 10.0 mi SSW 9.2 mph - N/A Thunderstorm Clear
9:15 PM 68.0 °F 26.6 °F 21% 29.82 in 10.0 mi Calm Calm - N/A   Clear
9:35 PM 66.2 °F 28.4 °F 24% 29.81 in 10.0 mi Calm Calm - N/A   Clear
9:55 PM 66.2 °F 26.6 °F 23% 29.81 in 10.0 mi West 8.1 mph - N/A Thunderstorm Clear
10:35 PM 66.2 °F 28.4 °F 24% 29.81 in 10.0 mi Calm Calm - N/A   Clear
11:15 PM 64.4 °F 30.2 °F 28% 29.81 in 10.0 mi Calm Calm - N/A   Clear
11:35 PM 62.6 °F 30.2 °F 30% 29.80 in 10.0 mi WSW 9.2 mph - N/A   Clear
11:55 PM 62.6 °F 32.0 °F 32% 29.80 in 10.0 mi Calm Calm - N/A Thunderstorm Clear